Погода в Кань-сюре-Мер

Франция     43°39′34″N   7°08′41″E
темп.,
°C
ветер,
м/с
пор.,
м/с
влажн.,
%
обл.,
%
осадки,
мм/ч
давл.,
гПа
погр.,
м
24 июля, сб
сб2423:00+23ссз1173100 0.0 101527
02:00+22с22697 0.0 101442
05:00+21с22552 0.0 101359
08:00+23с124048 0.0 1013124
11:00+27ююв324112 0.0 1013537
14:00+29юв324572 0.0 1012616
17:00+29юв2242100 0.0 1011550
20:00+26вюв2247100 0.0 1010179
25 июля, вс
вс2523:00+23ссв225998 0.0 101051
02:00+22ссз3343100 0.0 100959
05:00+22ссз3342100 0.0 100956
08:00+24с223950 0.0 100983
11:00+26ю2237100 0.0 1010574
14:00+28ююв3238100 0.0 1010915
17:00+27юв3254100 0.0 1009598
20:00+25юв1174100 0.0 1009311
26 июля, пн
пн2623:00+23ссв118914 0.3 1010176
02:00+21ссз22722 0.3 101062
05:00+20ссз33685 0.0 101076
08:00+22ссз235933 0.1 1011120
11:00+28ююв3246100 0.0 1011813
14:00+27ююв3360100 0.0 1013963
17:00+27ю3256100 0.0 1012766
20:00+24ююв337529 0.6 1013413
27 июля, вт
вт2723:00+22с3380100 0.3 1013114
02:00+21ссз33750 0.7 101481
05:00+20ссз3375100 0.3 101580
08:00+22сз236115 0.3 1014133
11:00+25юв214911 0.0 1014670
14:00+27юв32515 0.0 1015852
17:00+27ююв325535 0.0 1015878
20:00+24ю216598 0.1 1014413
28 июля, ср
ср2823:00+23ссз1171100 0.0 101561
02:00+22ссз22650 0.0 101551
05:00+21с22630 0.0 101466
08:00+23с12570 0.0 1015197
11:00+26ююв32550 0.0 1015833
14:00+26ююв32610 0.0 1015715
17:00+26ююв326521 0.0 1015692
20:00+24ю21680 0.0 1014330